CUA5595 ZBAD-ZYBA

Flight info

Callsign CUA5595
Flight time 1h 26m
Altitude 31100
Route DOTR6K DOTRA B334 TGO H6 P309 J65 DBC
Aircraft B738/M-SDE2E3FGHIRWXY/LB1

Departure

Time 2026-04-30 02:54
Airport Beijing Daxing International Airport (ZBAD)

Arrival

Time 2026-04-30 04:20
Airport Baicheng Chang'an Airport (ZYBA)
Time Latitude Longitude Altitude Speed Heading
2026-04-30 02:44 39.51104 116.42292 107 ft 0 kts 173°
2026-04-30 02:47 39.51126 116.42288 107 ft 4 kts 167°
2026-04-30 02:47 39.51151 116.42277 106 ft 4 kts 152°
2026-04-30 02:47 39.51172 116.42258 106 ft 4 kts 118°
2026-04-30 02:47 39.51176 116.42238 105 ft 1 kts 83°
2026-04-30 02:48 39.51176 116.42234 105 ft 0 kts 83°
2026-04-30 02:51 39.51177 116.42245 106 ft 6 kts 83°
2026-04-30 02:51 39.51187 116.42357 106 ft 15 kts 83°
2026-04-30 02:51 39.51199 116.42487 107 ft 15 kts 83°
2026-04-30 02:52 39.51242 116.42627 107 ft 18 kts 28°
2026-04-30 02:52 39.51367 116.42626 107 ft 20 kts 352°
2026-04-30 02:52 39.51465 116.42718 107 ft 21 kts 82°
2026-04-30 02:52 39.51482 116.42899 105 ft 21 kts 83°
2026-04-30 02:53 39.51526 116.43078 107 ft 21 kts 38°
2026-04-30 02:53 39.51653 116.43169 107 ft 21 kts 57°
2026-04-30 02:53 39.51631 116.43368 108 ft 30 kts 103°
2026-04-30 02:53 39.51514 116.44007 108 ft 117 kts 103°
2026-04-30 02:54 39.51270 116.45369 165 ft 187 kts 104°
2026-04-30 02:54 39.50936 116.47129 474 ft 207 kts 103°
2026-04-30 02:54 39.50629 116.48989 764 ft 211 kts 102°
2026-04-30 02:54 39.50306 116.50823 1203 ft 212 kts 103°
2026-04-30 02:55 39.49961 116.52688 1677 ft 223 kts 103°
2026-04-30 02:55 39.49594 116.54706 2110 ft 239 kts 103°
2026-04-30 02:55 39.49207 116.56878 2478 ft 254 kts 103°
2026-04-30 02:55 39.48809 116.59139 2817 ft 260 kts 104°
2026-04-30 02:56 39.48402 116.61406 3174 ft 257 kts 104°
2026-04-30 02:56 39.48227 116.63715 3528 ft 261 kts 80°
2026-04-30 02:56 39.48845 116.65909 3933 ft 260 kts 62°
2026-04-30 02:56 39.49741 116.67955 4311 ft 262 kts 58°
2026-04-30 02:57 39.50683 116.69984 4677 ft 263 kts 58°
2026-04-30 02:57 39.51316 116.71357 4932 ft 263 kts 58°
2026-04-30 02:57 39.52229 116.73368 5299 ft 262 kts 58°
2026-04-30 02:57 39.53146 116.75410 5678 ft 262 kts 58°
2026-04-30 02:58 39.54060 116.77455 6053 ft 262 kts 58°
2026-04-30 02:58 39.54950 116.79512 6434 ft 262 kts 61°
2026-04-30 02:58 39.55757 116.81628 6795 ft 262 kts 63°
2026-04-30 02:58 39.56548 116.83759 7166 ft 263 kts 62°
2026-04-30 02:59 39.57345 116.85893 7540 ft 263 kts 62°
2026-04-30 02:59 39.58150 116.88033 7922 ft 265 kts 62°
2026-04-30 02:59 39.58961 116.90185 8311 ft 267 kts 62°
2026-04-30 02:59 39.59780 116.92354 8690 ft 268 kts 62°
2026-04-30 03:00 39.60601 116.94533 9072 ft 270 kts 62°
2026-04-30 03:00 39.61427 116.96724 9462 ft 270 kts 62°
2026-04-30 03:00 39.62253 116.98915 9859 ft 271 kts 62°
2026-04-30 03:00 39.63149 117.01059 10201 ft 269 kts 49°
2026-04-30 03:01 39.64596 117.02523 10566 ft 265 kts 21°
2026-04-30 03:01 39.66381 117.03041 10926 ft 265 kts
2026-04-30 03:01 39.68217 117.02875 11330 ft 266 kts 355°
2026-04-30 03:01 39.70060 117.02594 11702 ft 268 kts 354°
2026-04-30 03:02 39.71932 117.02290 12099 ft 278 kts 354°
2026-04-30 03:02 39.73903 117.01974 12513 ft 293 kts 354°
2026-04-30 03:02 39.75979 117.01648 12924 ft 308 kts 354°
2026-04-30 03:02 39.78161 117.01309 13342 ft 323 kts 355°
2026-04-30 03:03 39.80440 117.00959 13756 ft 336 kts 355°
2026-04-30 03:03 39.85232 117.00231 14498 ft 361 kts 355°
2026-04-30 03:03 39.87764 116.99849 14864 ft 371 kts 355°
2026-04-30 03:04 39.90367 116.99457 15249 ft 381 kts 355°
2026-04-30 03:04 39.93028 116.99055 15626 ft 390 kts 355°
2026-04-30 03:04 39.95751 116.98644 16004 ft 396 kts 355°
2026-04-30 03:04 39.98488 116.98230 16387 ft 396 kts 355°
2026-04-30 03:05 40.01223 116.97816 16754 ft 396 kts 355°
2026-04-30 03:05 40.03957 116.97402 17138 ft 396 kts 355°
2026-04-30 03:05 40.06696 116.96988 17529 ft 396 kts 355°
2026-04-30 03:05 40.09438 116.96574 17939 ft 397 kts 355°
2026-04-30 03:06 40.12205 116.96156 18348 ft 403 kts 355°
2026-04-30 03:06 40.15010 116.95732 18704 ft 408 kts 355°
2026-04-30 03:06 40.17843 116.95303 19045 ft 410 kts 355°
2026-04-30 03:06 40.20682 116.94871 19407 ft 412 kts 355°
2026-04-30 03:07 40.23536 116.94438 19763 ft 413 kts 355°
2026-04-30 03:07 40.26391 116.94003 20132 ft 414 kts 355°
2026-04-30 03:07 40.29257 116.93567 20503 ft 415 kts 356°
2026-04-30 03:07 40.32118 116.93131 20891 ft 415 kts 356°
2026-04-30 03:08 40.34997 116.92692 21264 ft 416 kts 356°
2026-04-30 03:08 40.37879 116.92253 21651 ft 418 kts 356°
2026-04-30 03:08 40.40775 116.91811 22044 ft 421 kts 356°
2026-04-30 03:08 40.43691 116.91365 22448 ft 423 kts 356°
2026-04-30 03:09 40.46622 116.90917 22852 ft 425 kts 356°
2026-04-30 03:09 40.49562 116.90344 23251 ft 429 kts 351°
2026-04-30 03:09 40.52462 116.89346 23655 ft 432 kts 346°
2026-04-30 03:09 40.55343 116.88171 24004 ft 434 kts 345°
2026-04-30 03:10 40.58221 116.86971 24329 ft 435 kts 345°
2026-04-30 03:10 40.61114 116.85785 24678 ft 436 kts 345°
2026-04-30 03:10 40.64025 116.84644 25036 ft 436 kts 346°
2026-04-30 03:10 40.66942 116.83532 25384 ft 436 kts 346°
2026-04-30 03:11 40.69861 116.82429 25768 ft 436 kts 346°
2026-04-30 03:11 40.72743 116.81333 26142 ft 436 kts 346°
2026-04-30 03:11 40.75673 116.80314 26511 ft 434 kts 352°
2026-04-30 03:11 40.78709 116.80178 26914 ft 431 kts
2026-04-30 03:12 40.81701 116.80428 27285 ft 431 kts
2026-04-30 03:12 40.84690 116.80636 27672 ft 430 kts
2026-04-30 03:12 40.87684 116.80815 28070 ft 430 kts
2026-04-30 03:12 40.90669 116.80978 28472 ft 429 kts
2026-04-30 03:13 40.93654 116.81133 28880 ft 429 kts
2026-04-30 03:13 40.96590 116.81283 29293 ft 428 kts
2026-04-30 03:13 40.99559 116.81436 29698 ft 427 kts
2026-04-30 03:13 41.02529 116.81589 30112 ft 426 kts
2026-04-30 03:14 41.05485 116.81742 30475 ft 425 kts
2026-04-30 03:14 41.08435 116.81895 30835 ft 423 kts
2026-04-30 03:14 41.11378 116.82048 31069 ft 425 kts
2026-04-30 03:14 41.14346 116.82202 31054 ft 428 kts
2026-04-30 03:15 41.20356 116.82519 31067 ft 436 kts
2026-04-30 03:15 41.26429 116.82839 31064 ft 437 kts
2026-04-30 03:16 41.32469 116.83156 31059 ft 437 kts
2026-04-30 03:16 41.38553 116.83477 31045 ft 438 kts
2026-04-30 03:17 41.44640 116.83797 31053 ft 438 kts
2026-04-30 03:17 41.50736 116.84120 31055 ft 438 kts
2026-04-30 03:18 41.56833 116.84443 31054 ft 439 kts
2026-04-30 03:18 41.62943 116.84767 31061 ft 439 kts
2026-04-30 03:19 41.65976 116.85214 31034 ft 440 kts 15°
2026-04-30 03:19 41.68777 116.86842 31068 ft 440 kts 31°
2026-04-30 03:19 41.71194 116.89380 31063 ft 443 kts 43°
2026-04-30 03:19 41.73121 116.92604 31051 ft 447 kts 57°
2026-04-30 03:20 41.75821 117.00079 31054 ft 450 kts 63°
2026-04-30 03:20 41.78376 117.07737 31047 ft 450 kts 63°
2026-04-30 03:21 41.80963 117.15369 31055 ft 450 kts 63°
2026-04-30 03:21 41.83584 117.22985 31053 ft 450 kts 62°
2026-04-30 03:22 41.86214 117.30608 31053 ft 450 kts 62°
2026-04-30 03:22 41.88839 117.38236 31060 ft 450 kts 62°
2026-04-30 03:23 41.91456 117.45868 31059 ft 449 kts 62°
2026-04-30 03:23 41.94058 117.53481 31050 ft 448 kts 62°
2026-04-30 03:24 41.96655 117.61097 31047 ft 448 kts 63°
2026-04-30 03:24 41.99225 117.68656 31048 ft 447 kts 63°
2026-04-30 03:25 42.01806 117.76267 31051 ft 447 kts 63°
2026-04-30 03:25 42.04380 117.83877 31050 ft 447 kts 63°
2026-04-30 03:26 42.06951 117.91502 31046 ft 448 kts 63°
2026-04-30 03:26 42.09527 117.99157 31049 ft 449 kts 63°
2026-04-30 03:27 42.12097 118.06816 31055 ft 450 kts 63°
2026-04-30 03:27 42.14668 118.14504 31039 ft 450 kts 63°
2026-04-30 03:28 42.17237 118.22201 31040 ft 450 kts 63°
2026-04-30 03:28 42.19848 118.29895 31036 ft 450 kts 62°
2026-04-30 03:29 42.22576 118.37503 31032 ft 451 kts 61°
2026-04-30 03:29 42.25311 118.45119 31031 ft 451 kts 62°
2026-04-30 03:30 42.28027 118.52757 31026 ft 451 kts 62°
2026-04-30 03:30 42.30729 118.60405 31028 ft 451 kts 62°
2026-04-30 03:31 42.33413 118.68028 31029 ft 452 kts 62°
2026-04-30 03:31 42.36114 118.75716 31025 ft 453 kts 62°
2026-04-30 03:32 42.38810 118.83414 31026 ft 453 kts 62°
2026-04-30 03:32 42.41505 118.91128 31024 ft 454 kts 62°
2026-04-30 03:33 42.44202 118.98867 31020 ft 454 kts 62°
2026-04-30 03:33 42.46921 119.06595 31022 ft 454 kts 62°
2026-04-30 03:34 42.49687 119.14298 31025 ft 454 kts 62°
2026-04-30 03:34 42.52436 119.21963 31018 ft 455 kts 62°
2026-04-30 03:35 42.55195 119.29704 31015 ft 456 kts 62°
2026-04-30 03:35 42.57946 119.37456 31016 ft 456 kts 62°
2026-04-30 03:36 42.60690 119.45214 31011 ft 455 kts 62°
2026-04-30 03:36 42.63428 119.52976 31013 ft 456 kts 62°
2026-04-30 03:37 42.66163 119.60748 31018 ft 456 kts 62°
2026-04-30 03:37 42.68895 119.68535 31009 ft 457 kts 62°
2026-04-30 03:38 42.71607 119.76286 31007 ft 457 kts 62°
2026-04-30 03:38 42.74330 119.84090 31009 ft 457 kts 62°
2026-04-30 03:39 42.77051 119.91914 31008 ft 458 kts 62°
2026-04-30 03:39 42.79773 119.99759 31009 ft 458 kts 63°
2026-04-30 03:40 42.82488 120.07604 31001 ft 458 kts 63°
2026-04-30 03:40 42.85197 120.15460 31005 ft 458 kts 63°
2026-04-30 03:41 42.87905 120.23336 31001 ft 459 kts 63°
2026-04-30 03:41 42.90590 120.31163 31001 ft 459 kts 63°
2026-04-30 03:42 42.93290 120.39060 30997 ft 459 kts 63°
2026-04-30 03:42 42.95983 120.46955 31001 ft 459 kts 63°
2026-04-30 03:43 42.98720 120.54825 30995 ft 459 kts 62°
2026-04-30 03:43 43.01532 120.62643 30990 ft 458 kts 62°
2026-04-30 03:44 43.03887 120.69200 30994 ft 458 kts 62°
2026-04-30 03:44 43.06663 120.76983 30994 ft 459 kts 62°
2026-04-30 03:45 43.09452 120.84850 30995 ft 459 kts 62°
2026-04-30 03:45 43.12232 120.92719 30991 ft 459 kts 62°
2026-04-30 03:46 43.15009 121.00603 30990 ft 460 kts 62°
2026-04-30 03:46 43.17782 121.08497 30992 ft 460 kts 62°
2026-04-30 03:47 43.20554 121.16409 30988 ft 461 kts 62°
2026-04-30 03:47 43.23323 121.24335 30988 ft 461 kts 62°
2026-04-30 03:48 43.26087 121.32272 30986 ft 461 kts 62°
2026-04-30 03:48 43.28851 121.40229 30980 ft 462 kts 63°
2026-04-30 03:49 43.31593 121.48148 30989 ft 462 kts 63°
2026-04-30 03:49 43.34347 121.56126 30975 ft 462 kts 63°
2026-04-30 03:50 43.37098 121.64114 30982 ft 462 kts 62°
2026-04-30 03:50 43.39843 121.72115 30978 ft 463 kts 62°
2026-04-30 03:51 43.42587 121.80129 30979 ft 463 kts 63°
2026-04-30 03:51 43.45327 121.88160 30978 ft 464 kts 62°
2026-04-30 03:52 43.46701 121.92195 30698 ft 468 kts 63°
2026-04-30 03:52 43.48079 121.96247 30269 ft 466 kts 63°
2026-04-30 03:52 43.49450 122.00283 29833 ft 465 kts 62°
2026-04-30 03:52 43.50821 122.04325 29375 ft 467 kts 63°
2026-04-30 03:53 43.52202 122.08401 28902 ft 471 kts 62°
2026-04-30 03:53 43.53589 122.12503 28432 ft 473 kts 63°
2026-04-30 03:53 43.55168 122.16458 27948 ft 471 kts 52°
2026-04-30 03:53 43.57326 122.19824 27505 ft 468 kts 41°
2026-04-30 03:54 43.59910 122.22538 27055 ft 467 kts 29°
2026-04-30 03:54 43.62780 122.24598 26630 ft 465 kts 24°
2026-04-30 03:54 43.65686 122.26555 26195 ft 465 kts 23°
2026-04-30 03:54 43.68617 122.28514 25769 ft 470 kts 25°
2026-04-30 03:55 43.71553 122.30513 25353 ft 469 kts 24°
2026-04-30 03:55 43.74458 122.32504 24929 ft 464 kts 25°
2026-04-30 03:55 43.77344 122.34493 24521 ft 461 kts 24°
2026-04-30 03:55 43.80171 122.36451 24120 ft 460 kts 25°
2026-04-30 03:56 43.83019 122.38443 23721 ft 458 kts 25°
2026-04-30 03:56 43.85867 122.40427 23303 ft 457 kts 24°
2026-04-30 03:56 43.88720 122.42394 22846 ft 457 kts 25°
2026-04-30 03:56 43.91553 122.44376 22383 ft 456 kts 25°
2026-04-30 03:57 43.94371 122.46367 21933 ft 453 kts 25°
2026-04-30 03:57 43.97155 122.48339 21479 ft 445 kts 25°
2026-04-30 03:57 43.99896 122.50253 21039 ft 439 kts 25°
2026-04-30 03:57 44.02600 122.52206 20618 ft 437 kts 25°
2026-04-30 03:58 44.05297 122.54126 20193 ft 433 kts 24°
2026-04-30 03:58 44.07978 122.56000 19770 ft 430 kts 25°
2026-04-30 03:58 44.10647 122.57875 19356 ft 428 kts 26°
2026-04-30 03:58 44.13294 122.59762 18948 ft 426 kts 24°
2026-04-30 03:59 44.15925 122.61614 18547 ft 422 kts 24°
2026-04-30 03:59 44.18526 122.63384 18153 ft 421 kts 24°
2026-04-30 03:59 44.21153 122.65229 17696 ft 422 kts 25°
2026-04-30 03:59 44.23747 122.67096 17232 ft 418 kts 25°
2026-04-30 04:00 44.26325 122.68935 16788 ft 414 kts 25°
2026-04-30 04:00 44.28898 122.70722 16347 ft 412 kts 24°
2026-04-30 04:00 44.31457 122.72511 15922 ft 411 kts 24°
2026-04-30 04:00 44.34003 122.74322 15485 ft 409 kts 23°
2026-04-30 04:01 44.36546 122.76093 15069 ft 408 kts 24°
2026-04-30 04:01 44.39083 122.77867 14650 ft 407 kts 24°
2026-04-30 04:01 44.41622 122.79595 14236 ft 406 kts 24°
2026-04-30 04:01 44.44148 122.81378 13832 ft 406 kts 25°
2026-04-30 04:02 44.46662 122.83168 13408 ft 404 kts 24°
2026-04-30 04:02 44.49178 122.84921 12952 ft 403 kts 25°
2026-04-30 04:02 44.51672 122.86675 12658 ft 400 kts 25°
2026-04-30 04:02 44.54148 122.88442 12645 ft 399 kts 24°
2026-04-30 04:03 44.56623 122.90241 12637 ft 402 kts 25°
2026-04-30 04:03 44.59113 122.92007 12631 ft 400 kts 24°
2026-04-30 04:03 44.61612 122.93736 12617 ft 401 kts 23°
2026-04-30 04:03 44.64108 122.95497 12622 ft 402 kts 24°
2026-04-30 04:04 44.66614 122.97265 12622 ft 402 kts 24°
2026-04-30 04:04 44.69116 122.99037 12620 ft 402 kts 24°
2026-04-30 04:04 44.71579 123.00783 12619 ft 402 kts 23°
2026-04-30 04:04 44.74100 123.02592 12619 ft 403 kts 24°
2026-04-30 04:05 44.76561 123.04374 12624 ft 403 kts 24°
2026-04-30 04:05 44.79075 123.06159 12621 ft 404 kts 24°
2026-04-30 04:05 44.81612 123.07846 12605 ft 402 kts 18°
2026-04-30 04:05 44.84294 123.08884 12618 ft 399 kts 10°
2026-04-30 04:06 44.87006 123.09708 12605 ft 399 kts
2026-04-30 04:06 44.89719 123.10526 12614 ft 399 kts 10°
2026-04-30 04:06 44.92429 123.11374 12606 ft 399 kts 10°
2026-04-30 04:06 44.95130 123.12250 12611 ft 398 kts 11°
2026-04-30 04:07 44.97832 123.13148 12517 ft 400 kts 11°
2026-04-30 04:07 45.00537 123.14059 11990 ft 397 kts 11°
2026-04-30 04:07 45.03200 123.14965 11513 ft 390 kts 11°
2026-04-30 04:08 45.08375 123.16718 10578 ft 375 kts 10°
2026-04-30 04:08 45.10863 123.17567 10091 ft 360 kts 10°
2026-04-30 04:08 45.13247 123.18388 9635 ft 346 kts
2026-04-30 04:08 45.15549 123.19183 9132 ft 335 kts
2026-04-30 04:09 45.17777 123.19953 8650 ft 326 kts
2026-04-30 04:09 45.19923 123.20693 8162 ft 318 kts
2026-04-30 04:09 45.22050 123.21427 7684 ft 311 kts
2026-04-30 04:09 45.24133 123.22148 7215 ft 305 kts
2026-04-30 04:10 45.26183 123.22847 6754 ft 301 kts
2026-04-30 04:10 45.28202 123.23546 6276 ft 297 kts
2026-04-30 04:10 45.30193 123.24239 5814 ft 293 kts
2026-04-30 04:10 45.32158 123.24922 5335 ft 289 kts
2026-04-30 04:11 45.34097 123.25585 4893 ft 285 kts
2026-04-30 04:11 45.36028 123.26252 4407 ft 284 kts
2026-04-30 04:11 45.37926 123.26954 3929 ft 281 kts 12°
2026-04-30 04:11 45.39815 123.27544 3466 ft 276 kts
2026-04-30 04:12 45.41691 123.28154 3003 ft 277 kts
2026-04-30 04:12 45.43540 123.28760 2785 ft 265 kts
2026-04-30 04:12 45.45307 123.29073 2778 ft 250 kts 352°
2026-04-30 04:12 45.47012 123.28830 2771 ft 242 kts 349°
2026-04-30 04:13 45.48653 123.28628 2760 ft 231 kts 348°
2026-04-30 04:13 45.50228 123.28417 2747 ft 224 kts 348°
2026-04-30 04:13 45.51742 123.28090 2737 ft 214 kts 333°
2026-04-30 04:13 45.52985 123.27061 2777 ft 206 kts 319°
2026-04-30 04:14 45.54167 123.25937 2734 ft 204 kts 319°
2026-04-30 04:14 45.55342 123.24808 2764 ft 200 kts 320°
2026-04-30 04:14 45.56499 123.23752 2763 ft 197 kts 320°
2026-04-30 04:14 45.57615 123.22743 2775 ft 184 kts 320°
2026-04-30 04:15 45.58737 123.21958 2737 ft 184 kts 343°
2026-04-30 04:15 45.59879 123.21294 2733 ft 174 kts 300°
2026-04-30 04:15 45.59865 123.19763 2808 ft 163 kts 232°
2026-04-30 04:15 45.58876 123.19258 2781 ft 153 kts 182°
2026-04-30 04:16 45.57883 123.19464 2733 ft 141 kts 191°
2026-04-30 04:16 45.57219 123.18679 2735 ft 130 kts 251°
2026-04-30 04:16 45.57244 123.17368 2667 ft 137 kts 265°
2026-04-30 04:16 45.56930 123.16132 2522 ft 132 kts 238°
2026-04-30 04:17 45.56461 123.15003 2324 ft 132 kts 237°
2026-04-30 04:17 45.55974 123.13900 2117 ft 132 kts 235°
2026-04-30 04:17 45.55490 123.12836 2006 ft 128 kts 234°
2026-04-30 04:17 45.55005 123.11773 1842 ft 128 kts 235°
2026-04-30 04:18 45.54511 123.10695 1671 ft 130 kts 236°
2026-04-30 04:18 45.54017 123.09616 1487 ft 128 kts 236°
2026-04-30 04:18 45.53537 123.08563 1329 ft 125 kts 237°
2026-04-30 04:18 45.53062 123.07521 1176 ft 130 kts 238°
2026-04-30 04:19 45.52559 123.06421 1009 ft 131 kts 237°
2026-04-30 04:19 45.52079 123.05364 823 ft 128 kts 237°
2026-04-30 04:19 45.51577 123.04254 674 ft 137 kts 235°
2026-04-30 04:19 45.51059 123.03151 488 ft 128 kts 237°
2026-04-30 04:20 45.50630 123.02201 472 ft 99 kts 238°
2026-04-30 04:20 45.50337 123.01556 471 ft 56 kts 237°
2026-04-30 04:20 45.50203 123.01290 469 ft 12 kts 213°
2026-04-30 04:20 45.50168 123.01218 469 ft 1 kts 295°
2026-04-30 04:21 45.50176 123.01214 470 ft 1 kts 348°
2026-04-30 04:21 45.50191 123.01234 469 ft 9 kts 50°
2026-04-30 04:21 45.50255 123.01374 471 ft 25 kts 56°
2026-04-30 04:21 45.50382 123.01647 465 ft 38 kts 56°
2026-04-30 04:22 45.50511 123.01920 466 ft 25 kts 40°
2026-04-30 04:22 45.50607 123.01905 469 ft 14 kts 325°
2026-04-30 04:22 45.50684 123.01832 471 ft 13 kts 322°
2026-04-30 04:22 45.50681 123.01717 470 ft 13 kts 250°
2026-04-30 04:23 45.50700 123.01652 470 ft 0 kts 337°
2026-04-30 04:23 45.50701 123.01652 470 ft 1 kts 345°
2026-04-30 04:23 45.50719 123.01642 471 ft 0 kts 333°
2026-04-30 04:23 45.50719 123.01641 471 ft 0 kts 333°
2026-04-30 04:24 45.50720 123.01641 471 ft 0 kts 332°